Time,TemperatureF,DewpointF,PressureIn,WindDirection,WindDirectionDegrees,WindSpeedMPH,WindSpeedGustMPH,Humidity,HourlyPrecipIn,Conditions,Clouds,dailyrainin,SoftwareType,DateUTC
2013-03-04 00:04:00,28.4,15.8,30.15,NNW,343,6.9,-999.9,59,-99.99,,,-99.99,,2013-03-04 05:04:00,
2013-03-04 00:10:00,28.4,15.8,30.15,NE,48,3.5,-999.9,59,-99.99,,,-99.99,,2013-03-04 05:10:00,
2013-03-04 00:18:00,28.4,15.8,30.15,NE,48,3.5,-999.9,59,-99.99,,,-99.99,,2013-03-04 05:18:00,
2013-03-04 00:20:00,26.6,15.8,30.16,NNE,32,1.2,-999.9,64,-99.99,,,-99.99,,2013-03-04 05:20:00,
2013-03-04 00:28:00,26.6,15.8,30.16,NNE,32,1.2,-999.9,64,-99.99,,,-99.99,,2013-03-04 05:28:00,
2013-03-04 00:34:00,26.6,15.8,30.16,SW,222,1.2,-999.9,64,-99.99,,,-99.99,,2013-03-04 05:34:00,
2013-03-04 00:41:00,26.6,14.0,30.16,NNE,19,3.5,-999.9,59,-99.99,,,-99.99,,2013-03-04 05:41:00,
2013-03-04 00:48:00,26.6,14.0,30.16,NNE,19,3.5,-999.9,59,-99.99,,,-99.99,,2013-03-04 05:48:00,
2013-03-04 00:54:00,26.6,14.0,30.16,NE,49,4.6,-999.9,59,-99.99,,,-99.99,,2013-03-04 05:54:00,
2013-03-04 01:00:00,26.6,14.0,30.16,NNW,335,4.6,-999.9,59,-99.99,,,-99.99,,2013-03-04 06:00:00,
2013-03-04 01:08:00,26.6,14.0,30.16,NNW,335,4.6,-999.9,59,-99.99,,,-99.99,,2013-03-04 06:08:00,
2013-03-04 01:14:00,26.6,14.0,30.16,NE,36,6.9,-999.9,59,-99.99,,,-99.99,,2013-03-04 06:14:00,
2013-03-04 02:18:00,26.6,15.8,30.16,North,359,11.5,-999.9,64,-99.99,,,-99.99,,2013-03-04 07:18:00,
2013-03-04 02:24:00,26.6,15.8,30.16,North,352,4.6,-999.9,64,-99.99,,,-99.99,,2013-03-04 07:24:00,
2013-03-04 02:30:00,26.6,15.8,30.16,NW,307,0.0,-999.9,64,-99.99,,,-99.99,,2013-03-04 07:30:00,
2013-03-04 02:38:00,26.6,15.8,30.16,NW,307,0.0,-999.9,64,-99.99,,,-99.99,,2013-03-04 07:38:00,
2013-03-04 02:44:00,26.6,15.8,30.16,NNE,14,5.8,-999.9,64,-99.99,,,-99.99,,2013-03-04 07:44:00,
2013-03-04 02:50:00,26.6,15.8,30.16,NE,40,2.3,-999.9,64,-99.99,,,-99.99,,2013-03-04 07:50:00,
2013-03-04 02:58:00,26.6,15.8,30.16,NE,40,2.3,-999.9,64,-99.99,,,-99.99,,2013-03-04 07:58:00,
2013-03-04 03:04:00,26.6,17.6,30.15,North,11,5.8,-999.9,69,-99.99,,,-99.99,,2013-03-04 08:04:00,
2013-03-04 03:11:00,26.6,17.6,30.15,North,4,5.8,-999.9,69,-99.99,,,-99.99,,2013-03-04 08:11:00,
2013-03-04 03:17:00,26.6,17.6,30.15,North,4,5.8,-999.9,69,-99.99,,,-99.99,,2013-03-04 08:17:00,
2013-03-04 03:24:00,26.6,17.6,30.15,NNW,346,2.3,-999.9,69,-99.99,,,-99.99,,2013-03-04 08:24:00,
2013-03-04 03:30:00,26.6,17.6,30.15,North,352,1.2,-999.9,69,-99.99,,,-99.99,,2013-03-04 08:30:00,
2013-03-04 03:38:00,26.6,17.6,30.15,North,352,1.2,-999.9,69,-99.99,,,-99.99,,2013-03-04 08:38:00,
2013-03-04 03:44:00,26.6,17.6,30.16,NNE,28,1.2,-999.9,69,-99.99,,,-99.99,,2013-03-04 08:44:00,
2013-03-04 03:50:00,26.6,17.6,30.16,NNW,347,5.8,-999.9,69,-99.99,,,-99.99,,2013-03-04 08:50:00,
2013-03-04 03:58:00,26.6,17.6,30.16,NNW,347,5.8,-999.9,69,-99.99,,,-99.99,,2013-03-04 08:58:00,
2013-03-04 04:05:00,28.4,19.4,30.16,NW,325,0.0,-999.9,69,-99.99,,,-99.99,,2013-03-04 09:05:00,
2013-03-04 04:10:00,28.4,19.4,30.16,NNE,24,2.3,-999.9,69,-99.99,,,-99.99,,2013-03-04 09:10:00,
2013-03-04 04:19:00,28.4,19.4,30.16,NNE,24,2.3,-999.9,69,-99.99,,,-99.99,,2013-03-04 09:19:00,
2013-03-04 04:24:00,28.4,19.4,30.16,SW,225,1.2,-999.9,69,-99.99,,,-99.99,,2013-03-04 09:24:00,
2013-03-04 04:30:00,28.4,19.4,30.16,NNW,338,5.8,-999.9,69,-99.99,,,-99.99,,2013-03-04 09:30:00,
2013-03-04 04:38:00,28.4,19.4,30.16,NNW,338,5.8,-999.9,69,-99.99,,,-99.99,,2013-03-04 09:38:00,
2013-03-04 04:44:00,28.4,19.4,30.16,North,358,4.6,-999.9,69,-99.99,,,-99.99,,2013-03-04 09:44:00,
2013-03-04 04:50:00,28.4,19.4,30.16,North,349,4.6,-999.9,69,-99.99,,,-99.99,,2013-03-04 09:50:00,
2013-03-04 04:58:00,28.4,19.4,30.16,North,349,4.6,-999.9,69,-99.99,,,-99.99,,2013-03-04 09:58:00,
2013-03-04 05:04:00,28.4,19.4,30.16,NNE,27,3.5,-999.9,69,-99.99,,,-99.99,,2013-03-04 10:04:00,
2013-03-04 05:10:00,28.4,19.4,30.16,NNW,334,1.2,-999.9,69,-99.99,,,-99.99,,2013-03-04 10:10:00,
2013-03-04 05:18:00,28.4,19.4,30.16,NNW,334,1.2,-999.9,69,-99.99,,,-99.99,,2013-03-04 10:18:00,
2013-03-04 05:24:00,28.4,19.4,30.16,NNE,15,3.5,-999.9,69,-99.99,,,-99.99,,2013-03-04 10:24:00,
2013-03-04 05:30:00,28.4,19.4,30.16,NNE,21,5.8,-999.9,69,-99.99,,,-99.99,,2013-03-04 10:30:00,
2013-03-04 05:38:00,28.4,19.4,30.16,NNE,21,5.8,-999.9,69,-99.99,,,-99.99,,2013-03-04 10:38:00,
2013-03-04 05:44:00,28.4,19.4,30.17,NNE,18,1.2,-999.9,69,-99.99,,,-99.99,,2013-03-04 10:44:00,
2013-03-04 05:50:00,28.4,19.4,30.17,NNE,18,1.2,-999.9,69,-99.99,,,-99.99,,2013-03-04 10:50:00,
2013-03-04 05:57:00,28.4,19.4,30.17,NE,56,3.5,-999.9,69,-99.99,,,-99.99,,2013-03-04 10:57:00,
2013-03-04 06:04:00,28.4,19.4,30.17,ESE,117,3.5,-999.9,69,-99.99,,,-99.99,,2013-03-04 11:04:00,
2013-03-04 06:11:00,28.4,19.4,30.17,North,349,5.8,-999.9,69,-99.99,,,-99.99,,2013-03-04 11:11:00,
2013-03-04 06:18:00,28.4,19.4,30.17,North,349,5.8,-999.9,69,-99.99,,,-99.99,,2013-03-04 11:18:00,
2013-03-04 06:24:00,28.4,19.4,30.18,NE,36,3.5,-999.9,69,-99.99,,,-99.99,,2013-03-04 11:24:00,
2013-03-04 06:31:00,28.4,19.4,30.18,North,352,2.3,-999.9,69,-99.99,,,-99.99,,2013-03-04 11:31:00,
2013-03-04 06:38:00,28.4,19.4,30.18,North,352,2.3,-999.9,69,-99.99,,,-99.99,,2013-03-04 11:38:00,
2013-03-04 06:44:00,28.4,19.4,30.18,NNW,340,6.9,-999.9,69,-99.99,,,-99.99,,2013-03-04 11:44:00,
2013-03-04 06:50:00,28.4,19.4,30.19,NNE,12,6.9,-999.9,69,-99.99,,,-99.99,,2013-03-04 11:50:00,
2013-03-04 06:58:00,28.4,19.4,30.19,NNE,12,6.9,-999.9,69,-99.99,,,-99.99,,2013-03-04 11:58:00,
2013-03-04 07:04:00,28.4,19.4,30.19,NNE,20,4.6,-999.9,69,-99.99,,,-99.99,,2013-03-04 12:04:00,
2013-03-04 07:11:00,28.4,19.4,30.19,NNE,26,6.9,-999.9,69,-99.99,,,-99.99,,2013-03-04 12:11:00,
2013-03-04 07:18:00,28.4,19.4,30.19,NNE,26,6.9,-999.9,69,-99.99,,,-99.99,,2013-03-04 12:18:00,
2013-03-04 07:24:00,28.4,19.4,30.19,NNE,28,9.2,-999.9,69,-99.99,,,-99.99,,2013-03-04 12:24:00,
2013-03-04 07:30:00,28.4,19.4,30.19,NNW,342,3.5,-999.9,69,-99.99,,,-99.99,,2013-03-04 12:30:00,
2013-03-04 07:38:00,28.4,19.4,30.19,NNW,342,3.5,-999.9,69,-99.99,,,-99.99,,2013-03-04 12:38:00,
2013-03-04 07:44:00,30.2,19.4,30.20,NW,321,4.6,-999.9,64,-99.99,,,-99.99,,2013-03-04 12:44:00,
2013-03-04 08:00:00,30.2,19.4,30.20,NNW,343,3.5,-999.9,64,-99.99,,,-99.99,,2013-03-04 13:00:00,
2013-03-04 08:08:00,30.2,19.4,30.20,NNW,343,3.5,-999.9,64,-99.99,,,-99.99,,2013-03-04 13:08:00,
2013-03-04 08:14:00,30.2,19.4,30.20,NNE,28,4.6,-999.9,64,-99.99,,,-99.99,,2013-03-04 13:14:00,
2013-03-04 08:20:00,30.2,19.4,30.20,NE,45,4.6,-999.9,64,-99.99,,,-99.99,,2013-03-04 13:20:00,
2013-03-04 08:28:00,30.2,19.4,30.20,NE,45,4.6,-999.9,64,-99.99,,,-99.99,,2013-03-04 13:28:00,
2013-03-04 08:34:00,30.2,19.4,30.19,SSE,149,1.2,-999.9,64,-99.99,,,-99.99,,2013-03-04 13:34:00,
2013-03-04 08:40:00,30.2,19.4,30.19,NNE,13,1.2,-999.9,64,-99.99,,,-99.99,,2013-03-04 13:40:00,
2013-03-04 08:48:00,30.2,19.4,30.19,NNE,13,1.2,-999.9,64,-99.99,,,-99.99,,2013-03-04 13:48:00,
2013-03-04 08:54:00,30.2,19.4,30.19,South,184,2.3,-999.9,64,-99.99,,,-99.99,,2013-03-04 13:54:00,
2013-03-04 09:00:00,30.2,19.4,30.19,NE,39,4.6,-999.9,64,-99.99,,,-99.99,,2013-03-04 14:00:00,
2013-03-04 09:08:00,30.2,19.4,30.19,NE,39,4.6,-999.9,64,-99.99,,,-99.99,,2013-03-04 14:08:00,
2013-03-04 09:14:00,30.2,17.6,30.18,NNE,29,8.1,-999.9,60,-99.99,,,-99.99,,2013-03-04 14:14:00,
2013-03-04 09:20:00,30.2,17.6,30.19,North,353,6.9,-999.9,60,-99.99,,,-99.99,,2013-03-04 14:20:00,
2013-03-04 09:28:00,30.2,17.6,30.19,North,353,6.9,-999.9,60,-99.99,,,-99.99,,2013-03-04 14:28:00,
2013-03-04 09:34:00,32.0,19.4,30.19,NNE,29,4.6,-999.9,60,-99.99,,,-99.99,,2013-03-04 14:34:00,
2013-03-04 09:40:00,32.0,17.6,30.18,NNE,24,4.6,-999.9,55,-99.99,,,-99.99,,2013-03-04 14:40:00,
2013-03-04 09:48:00,32.0,17.6,30.18,NNE,24,4.6,-999.9,55,-99.99,,,-99.99,,2013-03-04 14:48:00,
2013-03-04 09:54:00,33.8,17.6,30.17,NNE,30,12.7,-999.9,52,-99.99,,,-99.99,,2013-03-04 14:54:00,
2013-03-04 10:00:00,32.0,17.6,30.17,NNE,29,8.1,-999.9,55,-99.99,,,-99.99,,2013-03-04 15:00:00,
2013-03-04 10:08:00,32.0,17.6,30.17,NNE,29,8.1,-999.9,55,-99.99,,,-99.99,,2013-03-04 15:08:00,
2013-03-04 10:14:00,32.0,17.6,30.17,North,11,3.5,-999.9,55,-99.99,,,-99.99,,2013-03-04 15:14:00,
2013-03-04 10:20:00,35.6,19.4,30.17,NNE,32,8.1,-999.9,52,-99.99,,,-99.99,,2013-03-04 15:20:00,
2013-03-04 10:28:00,35.6,19.4,30.17,NNE,32,8.1,-999.9,52,-99.99,,,-99.99,,2013-03-04 15:28:00,
2013-03-04 10:34:00,35.6,17.6,30.17,North,353,3.5,-999.9,48,-99.99,,,-99.99,,2013-03-04 15:34:00,
2013-03-04 10:40:00,35.6,17.6,30.17,NNE,19,5.8,-999.9,48,-99.99,,,-99.99,,2013-03-04 15:40:00,
2013-03-04 10:48:00,35.6,17.6,30.17,NNE,19,5.8,-999.9,48,-99.99,,,-99.99,,2013-03-04 15:48:00,
2013-03-04 10:54:00,35.6,17.6,30.17,NE,40,9.2,-999.9,48,-99.99,,,-99.99,,2013-03-04 15:54:00,
2013-03-04 11:00:00,35.6,17.6,30.17,NE,51,13.8,-999.9,48,-99.99,,,-99.99,,2013-03-04 16:00:00,
2013-03-04 11:08:00,35.6,17.6,30.17,NE,51,13.8,-999.9,48,-99.99,,,-99.99,,2013-03-04 16:08:00,
2013-03-04 11:14:00,37.4,19.4,30.16,NE,54,2.3,-999.9,48,-99.99,,,-99.99,,2013-03-04 16:14:00,
2013-03-04 11:20:00,39.2,19.4,30.16,NNE,18,9.2,-999.9,45,-99.99,,,-99.99,,2013-03-04 16:20:00,
2013-03-04 11:28:00,39.2,19.4,30.16,NNE,18,9.2,-999.9,45,-99.99,,,-99.99,,2013-03-04 16:28:00,
2013-03-04 11:34:00,37.4,17.6,30.16,North,1,2.3,-999.9,45,-99.99,,,-99.99,,2013-03-04 16:34:00,
2013-03-04 11:40:00,39.2,17.6,30.16,ENE,75,9.2,-999.9,42,-99.99,,,-99.99,,2013-03-04 16:40:00,
2013-03-04 11:48:00,39.2,17.6,30.16,ENE,75,9.2,-999.9,42,-99.99,,,-99.99,,2013-03-04 16:48:00,
2013-03-04 11:54:00,39.2,19.4,30.16,NW,315,8.1,-999.9,45,-99.99,,,-99.99,,2013-03-04 16:54:00,
2013-03-04 12:00:00,39.2,19.4,30.16,NE,34,3.5,-999.9,45,-99.99,,,-99.99,,2013-03-04 17:00:00,
2013-03-04 12:08:00,39.2,19.4,30.16,NE,34,3.5,-999.9,45,-99.99,,,-99.99,,2013-03-04 17:08:00,
2013-03-04 12:14:00,39.2,19.4,30.15,SSE,157,4.6,-999.9,45,-99.99,,,-99.99,,2013-03-04 17:14:00,
2013-03-04 12:20:00,39.2,17.6,30.14,North,0,5.8,-999.9,42,-99.99,,,-99.99,,2013-03-04 17:20:00,
2013-03-04 12:28:00,39.2,17.6,30.14,North,0,5.8,-999.9,42,-99.99,,,-99.99,,2013-03-04 17:28:00,
2013-03-04 12:34:00,39.2,19.4,30.14,NE,43,11.5,-999.9,45,-99.99,,,-99.99,,2013-03-04 17:34:00,
2013-03-04 12:40:00,39.2,19.4,30.15,NNE,32,17.3,-999.9,45,-99.99,,,-99.99,,2013-03-04 17:40:00,
2013-03-04 12:48:00,39.2,19.4,30.15,NNE,32,17.3,-999.9,45,-99.99,,,-99.99,,2013-03-04 17:48:00,
2013-03-04 12:54:00,39.2,17.6,30.14,ENE,77,3.5,-999.9,42,-99.99,,,-99.99,,2013-03-04 17:54:00,
2013-03-04 13:00:00,39.2,17.6,30.14,ENE,68,4.6,-999.9,42,-99.99,,,-99.99,,2013-03-04 18:00:00,
2013-03-04 13:08:00,39.2,17.6,30.14,ENE,68,4.6,-999.9,42,-99.99,,,-99.99,,2013-03-04 18:08:00,
2013-03-04 13:14:00,39.2,17.6,30.14,NE,35,4.6,-999.9,42,-99.99,,,-99.99,,2013-03-04 18:14:00,
2013-03-04 13:20:00,41.0,19.4,30.14,NNE,18,3.5,-999.9,42,-99.99,,,-99.99,,2013-03-04 18:20:00,
2013-03-04 13:28:00,41.0,19.4,30.14,NNE,18,3.5,-999.9,42,-99.99,,,-99.99,,2013-03-04 18:28:00,
2013-03-04 13:29:00,41.0,19.4,30.14,NNE,18,3.5,-999.9,42,-99.99,,,-99.99,,2013-03-04 18:29:00,
2013-03-04 13:34:00,39.2,17.6,30.14,NNE,18,15.0,-999.9,42,-99.99,,,-99.99,,2013-03-04 18:34:00,
2013-03-04 13:37:00,39.2,17.6,30.14,NNE,18,15.0,-999.9,42,-99.99,,,-99.99,,2013-03-04 18:37:00,
2013-03-04 13:44:00,39.2,17.6,30.13,North,9,4.6,-999.9,42,-99.99,,,-99.99,,2013-03-04 18:44:00,
2013-03-04 13:50:00,41.0,19.4,30.14,NNE,31,4.6,-999.9,42,-99.99,,,-99.99,,2013-03-04 18:50:00,
2013-03-04 13:58:00,41.0,19.4,30.14,NNE,31,4.6,-999.9,42,-99.99,,,-99.99,,2013-03-04 18:58:00,
2013-03-04 14:04:00,41.0,19.4,30.14,NNE,22,6.9,-999.9,42,-99.99,,,-99.99,,2013-03-04 19:04:00,
2013-03-04 14:10:00,39.2,17.6,30.14,NNE,31,4.6,-999.9,42,-99.99,,,-99.99,,2013-03-04 19:10:00,
2013-03-04 14:18:00,39.2,17.6,30.14,NNE,31,4.6,-999.9,42,-99.99,,,-99.99,,2013-03-04 19:18:00,
2013-03-04 14:24:00,39.2,17.6,30.14,NNE,26,9.2,-999.9,42,-99.99,,,-99.99,,2013-03-04 19:24:00,
2013-03-04 14:30:00,39.2,17.6,30.14,NE,45,9.2,-999.9,42,-99.99,,,-99.99,,2013-03-04 19:30:00,
2013-03-04 14:38:00,39.2,17.6,30.14,NE,45,9.2,-999.9,42,-99.99,,,-99.99,,2013-03-04 19:38:00,
2013-03-04 14:44:00,39.2,17.6,30.15,North,5,6.9,-999.9,42,-99.99,,,-99.99,,2013-03-04 19:44:00,
2013-03-04 14:51:00,37.4,17.6,30.15,NNE,22,13.8,-999.9,45,-99.99,,,-99.99,,2013-03-04 19:51:00,
2013-03-04 14:58:00,37.4,17.6,30.15,NNE,22,13.8,-999.9,45,-99.99,,,-99.99,,2013-03-04 19:58:00,
2013-03-04 15:05:00,37.4,17.6,30.16,NNE,25,6.9,-999.9,45,-99.99,,,-99.99,,2013-03-04 20:05:00,
2013-03-04 15:10:00,39.2,17.6,30.15,NE,42,9.2,-999.9,42,-99.99,,,-99.99,,2013-03-04 20:10:00,
2013-03-04 15:19:00,39.2,17.6,30.15,NE,42,9.2,-999.9,42,-99.99,,,-99.99,,2013-03-04 20:19:00,
2013-03-04 15:24:00,39.2,19.4,30.16,North,4,11.5,-999.9,45,-99.99,,,-99.99,,2013-03-04 20:24:00,
2013-03-04 15:30:00,39.2,19.4,30.16,North,6,3.5,-999.9,45,-99.99,,,-99.99,,2013-03-04 20:30:00,
2013-03-04 15:38:00,39.2,19.4,30.16,North,6,3.5,-999.9,45,-99.99,,,-99.99,,2013-03-04 20:38:00,
2013-03-04 15:44:00,37.4,17.6,30.16,North,3,16.1,-999.9,45,-99.99,,,-99.99,,2013-03-04 20:44:00,
2013-03-04 15:50:00,37.4,17.6,30.16,WSW,251,2.3,-999.9,45,-99.99,,,-99.99,,2013-03-04 20:50:00,
2013-03-04 15:58:00,37.4,17.6,30.16,WSW,251,2.3,-999.9,45,-99.99,,,-99.99,,2013-03-04 20:58:00,
2013-03-04 16:05:00,37.4,17.6,30.16,NNE,12,8.1,-999.9,45,-99.99,,,-99.99,,2013-03-04 21:05:00,
2013-03-04 16:10:00,39.2,19.4,30.16,NNW,338,4.6,-999.9,45,-99.99,,,-99.99,,2013-03-04 21:10:00,
2013-03-04 16:17:00,39.2,19.4,30.16,NNW,338,4.6,-999.9,45,-99.99,,,-99.99,,2013-03-04 21:17:00,
2013-03-04 16:24:00,39.2,19.4,30.16,NNW,347,3.5,-999.9,45,-99.99,,,-99.99,,2013-03-04 21:24:00,
2013-03-04 16:29:00,39.2,19.4,30.16,NNW,347,3.5,-999.9,45,-99.99,,,-99.99,,2013-03-04 21:29:00,
2013-03-04 16:35:00,39.2,19.4,30.16,NNE,29,6.9,-999.9,45,-99.99,,,-99.99,,2013-03-04 21:35:00,
2013-03-04 16:40:00,37.4,17.6,30.16,NNE,29,15.0,-999.9,45,-99.99,,,-99.99,,2013-03-04 21:40:00,
2013-03-04 16:48:00,37.4,17.6,30.16,NNE,29,15.0,-999.9,45,-99.99,,,-99.99,,2013-03-04 21:48:00,
2013-03-04 16:54:00,37.4,17.6,30.17,North,4,8.1,-999.9,45,-99.99,,,-99.99,,2013-03-04 21:54:00,
2013-03-04 17:00:00,37.4,17.6,30.17,North,359,4.6,-999.9,45,-99.99,,,-99.99,,2013-03-04 22:00:00,
2013-03-04 17:09:00,37.4,17.6,30.17,North,359,4.6,-999.9,45,-99.99,,,-99.99,,2013-03-04 22:09:00,
2013-03-04 17:14:00,37.4,17.6,30.17,NNE,20,9.2,-999.9,45,-99.99,,,-99.99,,2013-03-04 22:14:00,
2013-03-04 17:20:00,37.4,17.6,30.18,NNE,32,11.5,-999.9,45,-99.99,,,-99.99,,2013-03-04 22:20:00,
2013-03-04 17:28:00,37.4,17.6,30.18,NNE,32,11.5,-999.9,45,-99.99,,,-99.99,,2013-03-04 22:28:00,
2013-03-04 17:34:00,37.4,19.4,30.18,North,354,9.2,-999.9,48,-99.99,,,-99.99,,2013-03-04 22:34:00,
2013-03-04 17:40:00,37.4,19.4,30.19,NNE,18,12.7,-999.9,48,-99.99,,,-99.99,,2013-03-04 22:40:00,
2013-03-04 17:48:00,37.4,19.4,30.19,NNE,18,12.7,-999.9,48,-99.99,,,-99.99,,2013-03-04 22:48:00,
2013-03-04 18:00:00,35.6,17.6,30.19,NE,37,6.9,-999.9,48,-99.99,,,-99.99,,2013-03-04 23:00:00,
2013-03-04 18:08:00,35.6,17.6,30.20,NNE,33,6.9,-999.9,48,-99.99,,,-99.99,,2013-03-04 23:08:00,
2013-03-04 18:13:00,35.6,17.6,30.20,NNE,25,11.5,-999.9,48,-99.99,,,-99.99,,2013-03-04 23:13:00,
2013-03-04 18:19:00,35.6,17.6,30.20,NNE,25,11.5,-999.9,48,-99.99,,,-99.99,,2013-03-04 23:19:00,
2013-03-04 18:28:00,35.6,17.6,30.20,NE,37,12.7,-999.9,48,-99.99,,,-99.99,,2013-03-04 23:28:00,
2013-03-04 19:20:00,35.6,19.4,30.22,NNE,17,5.8,-999.9,52,-99.99,,,-99.99,,2013-03-05 00:20:00,
2013-03-04 19:26:00,35.6,19.4,30.22,NNE,17,5.8,-999.9,52,-99.99,,,-99.99,,2013-03-05 00:26:00,
2013-03-04 19:32:00,35.6,19.4,30.22,NE,38,12.7,-999.9,52,-99.99,,,-99.99,,2013-03-05 00:32:00,
2013-03-04 19:38:00,35.6,19.4,30.22,NE,38,12.7,-999.9,52,-99.99,,,-99.99,,2013-03-05 00:38:00,
2013-03-04 19:45:00,35.6,19.4,30.22,NNE,23,8.1,-999.9,52,-99.99,,,-99.99,,2013-03-05 00:45:00,
2013-03-04 19:50:00,33.8,19.4,30.23,North,1,6.9,-999.9,56,-99.99,,,-99.99,,2013-03-05 00:50:00,
2013-03-04 19:56:00,33.8,19.4,30.23,North,1,6.9,-999.9,56,-99.99,,,-99.99,,2013-03-05 00:56:00,
2013-03-04 20:03:00,33.8,17.6,30.23,NNE,23,11.5,-999.9,52,-99.99,,,-99.99,,2013-03-05 01:03:00,
2013-03-04 20:09:00,33.8,17.6,30.23,NNE,23,11.5,-999.9,52,-99.99,,,-99.99,,2013-03-05 01:09:00,
2013-03-04 20:16:00,33.8,19.4,30.23,ENE,68,2.3,-999.9,56,-99.99,,,-99.99,,2013-03-05 01:16:00,
2013-03-04 20:22:00,33.8,19.4,30.24,NNE,16,8.1,-999.9,56,-99.99,,,-99.99,,2013-03-05 01:22:00,
2013-03-04 20:30:00,33.8,19.4,30.24,NE,51,3.5,-999.9,56,-99.99,,,-99.99,,2013-03-05 01:30:00,
2013-03-04 20:36:00,33.8,19.4,30.24,NE,51,3.5,-999.9,56,-99.99,,,-99.99,,2013-03-05 01:36:00,
2013-03-04 20:41:00,33.8,19.4,30.25,NNE,32,5.8,-999.9,56,-99.99,,,-99.99,,2013-03-05 01:41:00,
2013-03-04 20:50:00,33.8,19.4,30.26,NNE,15,8.1,-999.9,56,-99.99,,,-99.99,,2013-03-05 01:50:00,
2013-03-04 20:56:00,33.8,19.4,30.26,NNE,15,8.1,-999.9,56,-99.99,,,-99.99,,2013-03-05 01:56:00,
2013-03-04 21:02:00,33.8,19.4,30.26,NNE,26,11.5,-999.9,56,-99.99,,,-99.99,,2013-03-05 02:02:00,
2013-03-04 21:11:00,33.8,19.4,30.27,North,2,8.1,-999.9,56,-99.99,,,-99.99,,2013-03-05 02:11:00,
2013-03-04 21:17:00,33.8,19.4,30.27,North,2,8.1,-999.9,56,-99.99,,,-99.99,,2013-03-05 02:17:00,
2013-03-04 21:22:00,33.8,19.4,30.27,NNE,14,6.9,-999.9,56,-99.99,,,-99.99,,2013-03-05 02:22:00,
2013-03-04 21:30:00,33.8,19.4,30.27,NNE,14,6.9,-999.9,56,-99.99,,,-99.99,,2013-03-05 02:30:00,
2013-03-04 21:36:00,33.8,19.4,30.27,North,5,5.8,-999.9,56,-99.99,,,-99.99,,2013-03-05 02:36:00,
2013-03-04 21:42:00,33.8,19.4,30.27,North,10,8.1,-999.9,56,-99.99,,,-99.99,,2013-03-05 02:42:00,
2013-03-04 21:50:00,33.8,19.4,30.27,NNE,26,11.5,-999.9,56,-99.99,,,-99.99,,2013-03-05 02:50:00,
2013-03-04 21:57:00,33.8,19.4,30.27,NNE,26,11.5,-999.9,56,-99.99,,,-99.99,,2013-03-05 02:57:00,
2013-03-04 22:02:00,33.8,19.4,30.28,North,349,8.1,-999.9,56,-99.99,,,-99.99,,2013-03-05 03:02:00,
2013-03-04 22:10:00,33.8,19.4,30.28,NNE,17,9.2,-999.9,56,-99.99,,,-99.99,,2013-03-05 03:10:00,
2013-03-04 22:16:00,33.8,19.4,30.28,NNE,17,9.2,-999.9,56,-99.99,,,-99.99,,2013-03-05 03:16:00,
2013-03-04 22:22:00,33.8,19.4,30.28,NNE,14,9.2,-999.9,56,-99.99,,,-99.99,,2013-03-05 03:22:00,
2013-03-04 22:31:00,32.0,19.4,30.28,NNE,13,13.8,-999.9,60,-99.99,,,-99.99,,2013-03-05 03:31:00,
2013-03-04 22:36:00,32.0,19.4,30.28,NNE,13,13.8,-999.9,60,-99.99,,,-99.99,,2013-03-05 03:36:00,
2013-03-04 22:42:00,32.0,19.4,30.28,NNE,12,9.2,-999.9,60,-99.99,,,-99.99,,2013-03-05 03:42:00,
2013-03-04 22:48:00,32.0,19.4,30.28,NNE,12,9.2,-999.9,60,-99.99,,,-99.99,,2013-03-05 03:48:00,
2013-03-04 22:56:00,32.0,19.4,30.27,NNE,31,13.8,-999.9,60,-99.99,,,-99.99,,2013-03-05 03:56:00,
2013-03-04 23:02:00,32.0,19.4,30.28,North,6,6.9,-999.9,60,-99.99,,,-99.99,,2013-03-05 04:02:00,
2013-03-04 23:10:00,32.0,19.4,30.28,NE,35,5.8,-999.9,60,-99.99,,,-99.99,,2013-03-05 04:10:00,
2013-03-04 23:16:00,32.0,19.4,30.28,NE,35,5.8,-999.9,60,-99.99,,,-99.99,,2013-03-05 04:16:00,
2013-03-04 23:23:00,32.0,19.4,30.28,NNE,27,8.1,-999.9,60,-99.99,,,-99.99,,2013-03-05 04:23:00,
2013-03-04 23:30:00,32.0,19.4,30.29,North,8,4.6,-999.9,60,-99.99,,,-99.99,,2013-03-05 04:30:00,
2013-03-04 23:36:00,32.0,19.4,30.29,North,8,4.6,-999.9,60,-99.99,,,-99.99,,2013-03-05 04:36:00,
2013-03-04 23:42:00,32.0,19.4,30.29,North,0,6.9,-999.9,60,-99.99,,,-99.99,,2013-03-05 04:42:00,
2013-03-04 23:50:00,32.0,19.4,30.29,NNE,27,12.7,-999.9,60,-99.99,,,-99.99,,2013-03-05 04:50:00,
2013-03-04 23:57:00,32.0,19.4,30.29,NNE,27,12.7,-999.9,60,-99.99,,,-99.99,,2013-03-05 04:57:00,